Weather in Novolavela

Russia / Arkhangel'skaya Oblast'     63°36′48″N   45°31′21″E
temp.,
°C
wind,
m/s
gust,
m/s
humid.,
%
clouds,
%
prec.,
mm/h
press.,
hPa
HPBL,
m
12 may, wed
wed1200:00+13sw41476100 0.0 1024391
03:00+12sw41579100 0.0 1024415
06:00+14sw4137288 0.0 1024537
09:00+20wsw5951100 0.0 1024886
12:00+23wsw583954 0.0 10241671
15:00+24wsw573374 0.0 10241999
18:00+23w36403 0.0 1024702
21:00+17sw22635 0.0 102418
13 may, thu
thu1300:00+15ssw23725 0.0 102434
03:00+13ssw237914 0.0 102557
06:00+17ssw26650 0.0 1024212
09:00+22ssw46460 0.0 1023899
12:00+24sw46320 0.0 10221795
15:00+25sw47284 0.0 10212381
18:00+24sw353543 0.0 1019944
21:00+19sw285667 0.0 1019182
14 may, fri
fri1400:00+16sw246870 0.0 101858
03:00+14s237647 0.0 101853
06:00+17sse266774 0.1 1016201
09:00+21s4751100 0.1 1014859
12:00+16s3782100 2.0 1015515
15:00+20sw586377 3.3 10141435
18:00+21sw385382 0.3 10121642
21:00+16sw3956100 0.3 1013244
15 may, sat
sat1500:00+13sw311665 0.0 1014355
03:00+11sw297499 0.0 1014215
06:00+14sw3964100 0.0 1014556
09:00+13w377699 0.6 1014627
12:00+19w574679 0.1 10141959
15:00+19nw244899 0.1 1014948
18:00+18ne225070 0.0 1014756
21:00+13ene247287 0.0 101364
16 may, sun
sun1600:00+12e41176100 0.0 1011387
03:00+11e41186100 0.6 1010512
06:00+11e41196100 7.9 1008516
09:00+12ese4894100 8.4 1007492
12:00+14ese4690100 0.8 1005453
15:00+17ene1582100 11.0 1003583
18:00+14nnw1495100 8.2 1003125
21:00+13ese2397100 8.8 100374